Theta_e
299 300 299 299 299 299 299 299 299 299 299 299 299 299 300 300 300 300 300 301 301 301 302 302 302 302 302 302 300 299 299 301 303 307 308 307 304 302 303 303 304 305 307 309 311 312 315
299 299 299 299 298 298 299 298 299 299 299 299 299 299 299 299 300 300 301 299 300 301 303 304 304 303 303 302 300 300 299 300 304 310 309 305 302 302 303 303 304 303 306 307 309 311 321
298 298 298 298 298 298 298 298 299 298 298 298 298 299 299 299 300 299 299 301 302 302 303 306 305 303 303 302 301 301 302 302 302 302 308 307 303 304 303 305 304 305 305 305 307 307 319
298 298 298 298 298 298 298 299 298 298 298 298 298 299 299 300 299 299 301 301 302 303 305 304 305 303 305 304 304 304 304 303 302 301 299 306 304 302 302 303 305 304 305 306 306 305 317
297 297 297 297 297 298 298 298 298 298 298 298 298 298 299 300 299 301 302 301 302 306 306 306 304 305 306 305 304 306 306 303 303 301 299 305 303 302 303 301 303 303 304 305 307 305 317
297 297 297 297 297 297 298 298 298 298 298 298 298 299 299 299 299 300 302 301 301 306 306 306 305 304 303 304 304 304 303 304 302 301 304 303 302 301 299 299 303 303 305 305 306 306 321
297 297 297 297 297 297 297 298 298 298 298 298 298 299 298 298 299 300 301 301 298 298 300 299 299 304 302 303 303 303 303 301 302 304 305 304 302 304 303 302 302 304 305 307 305 308 319
296 296 296 297 297 296 297 297 297 297 297 298 298 299 297 299 299 300 301 299 301 300 301 300 301 300 301 302 302 301 301 300 303 302 304 304 308 304 303 302 302 303 306 307 308 310 315
296 296 296 296 296 296 296 296 297 297 297 298 298 296 298 300 299 300 301 301 301 302 301 302 302 306 306 302 302 302 300 302 302 302 304 306 307 306 302 302 303 303 305 309 311 330 329
296 296 296 296 296 296 296 296 296 297 297 297 296 297 299 301 300 299 300 301 301 302 303 304 305 304 303 302 302 302 300 303 301 302 302 303 304 307 304 303 303 303 305 307 308 312 326
295 296 295 295 295 295 295 296 296 297 296 294 294 297 300 301 300 299 300 300 303 303 292 302 301 302 301 303 304 305 303 304 304 304 304 304 304 304 304 304 304 304 306 306 308 310 320
295 295 295 295 295 295 295 296 296 296 293 293 295 299 300 300 300 299 297 300 302 297 293 304 300 300 301 304 305 306 306 303 303 304 304 303 303 304 304 305 305 307 307 308 309 310 313
295 295 295 294 295 295 295 296 296 293 292 293 295 300 297 298 295 299 300 298 299 292 301 301 299 300 302 303 305 306 308 306 303 305 304 303 305 306 304 305 305 306 307 311 311 315 314
295 294 295 294 294 295 295 295 294 293 292 292 297 296 295 295 297 302 299 298 293 300 301 299 299 301 305 303 302 306 311 310 306 306 300 302 304 303 305 305 304 304 307 313 312 311 310
294 294 294 294 294 294 295 294 293 292 292 293 298 300 294 295 296 299 294 290 293 296 295 297 300 303 304 301 299 304 308 306 306 305 306 307 303 303 304 305 304 305 307 308 313 313 312
294 294 294 293 294 294 294 291 292 292 292 294 298 298 293 294 296 295 293 296 299 296 294 296 300 300 301 298 298 299 306 304 302 300 302 307 310 304 304 305 304 306 306 309 312 318 316
294 294 293 293 294 294 294 289 291 292 292 295 296 291 293 294 295 292 288 295 298 295 295 297 296 298 295 296 296 304 303 305 301 299 303 306 311 305 305 306 305 306 308 309 310 314 315
293 293 293 293 293 294 294 289 291 292 292 294 292 289 292 293 290 288 291 294 294 294 294 294 297 294 295 295 296 300 299 301 299 298 306 304 308 314 305 306 305 306 307 310 310 310 313
293 293 293 292 293 293 294 291 290 291 292 293 288 287 293 292 287 288 293 292 293 293 293 293 294 294 294 296 297 297 297 297 298 298 300 302 309 316 308 305 305 306 307 310 309 311 315
293 293 293 292 293 293 294 293 291 291 292 292 286 285 287 287 288 291 292 291 292 293 293 292 293 293 293 293 296 297 295 295 295 297 299 302 310 311 311 311 309 306 307 309 308 310 311
293 293 293 292 292 293 293 294 292 291 291 292 285 286 287 286 289 290 292 292 291 292 292 291 291 292 292 293 294 294 294 293 294 299 296 298 304 307 308 310 314 310 306 308 308 308 312
292 293 292 292 292 292 293 293 293 291 291 292 285 290 291 289 290 290 291 292 292 292 292 292 292 292 292 293 294 293 292 292 293 295 294 296 303 305 309 312 312 314 314 312 313 314 308
292 292 292 292 291 292 292 293 294 292 291 291 291 290 289 289 290 291 291 292 292 292 292 292 292 292 292 292 291 291 292 292 293 294 294 295 301 302 314 312 314 316 314 313 311 310 312
292 292 292 292 291 291 292 292 293 293 291 291 291 289 284 289 290 291 291 292 292 292 293 292 292 292 293 292 291 291 291 292 293 293 294 294 295 300 310 313 317 314 308 309 309 308 307
292 292 292 292 291 291 291 292 292 293 292 291 291 291 283 287 290 291 292 291 291 291 291 291 292 293 293 292 293 295 295 298 299 295 295 295 298 303 310 316 317 309 305 307 311 309 306
292 292 291 291 291 291 291 291 292 292 293 292 291 291 291 288 287 290 291 291 291 291 291 292 292 292 293 295 296 298 300 300 305 303 297 296 297 301 306 313 313 305 303 303 305 312 305
292 292 291 290 291 291 291 291 291 292 293 292 292 291 292 288 288 290 289 291 290 291 291 291 292 291 292 294 295 296 298 297 300 300 300 302 302 304 308 310 306 302 302 304 313 308 304
292 291 291 290 289 290 290 291 291 291 292 291 291 291 292 291 288 290 290 290 289 288 292 289 290 291 293 294 295 295 296 296 298 300 300 299 300 302 304 303 303 300 302 305 303 302 305
292 291 291 291 290 289 290 290 291 291 292 292 291 291 291 291 288 291 290 290 290 290 288 289 290 290 291 293 294 295 296 296 298 299 298 299 299 299 300 301 301 301 301 301 301 303 304
Wind_Speed
13 13 14 15 17 18 19 20 21 22 23 25 26 27 28 28 29 29 29 29 27 25 23 20 16 13 9 4 10 25 22 19 10 9 14 7 5 6 7 5 3 6 2 7 6 5 5
13 14 15 16 17 18 19 20 21 22 23 25 26 27 28 29 29 29 29 27 25 26 24 21 15 10 6 9 16 13 10 15 11 11 10 11 7 7 7 5 12 6 7 6 6 16 9
13 15 15 16 18 18 19 20 21 22 23 24 25 27 28 29 29 30 28 25 26 29 25 21 14 9 9 22 16 26 29 33 30 15 4 14 27 7 6 2 6 3 3 11 18 7 5
14 15 16 16 18 19 20 20 21 22 23 24 25 26 27 27 28 27 24 24 28 20 16 11 7 6 8 19 25 30 26 25 22 22 25 13 23 4 4 3 2 7 3 8 5 13 7
15 16 16 16 18 19 20 21 22 23 24 25 26 26 27 26 27 22 22 27 12 7 8 7 7 7 10 11 10 10 6 9 11 9 19 8 10 5 2 4 0 4 5 16 2 13 8
16 17 16 17 18 20 20 21 23 24 25 26 27 27 26 25 25 20 22 21 7 3 5 1 1 2 7 5 8 18 19 6 5 3 5 6 4 6 3 5 13 5 4 6 12 6 5
16 17 18 19 20 20 21 21 23 25 26 27 28 27 24 24 22 16 20 6 6 5 4 6 7 4 16 10 21 9 12 2 2 4 7 6 5 14 24 14 3 6 5 5 6 7 7
17 18 19 20 21 23 24 23 24 26 28 29 29 28 21 23 15 16 11 5 3 7 11 11 18 13 25 10 7 6 10 8 6 6 7 4 16 10 8 10 10 9 5 4 4 9 5
18 19 20 21 22 24 24 25 26 27 29 30 29 24 20 22 7 12 5 4 10 12 4 8 6 6 6 6 5 6 5 6 5 7 9 9 4 15 11 9 17 17 11 4 2 6 4
18 20 21 23 24 24 25 25 26 28 30 31 28 22 18 21 3 12 5 13 17 4 4 6 4 2 2 3 5 9 7 6 5 13 7 7 8 9 9 13 14 18 11 4 2 2 5
18 20 22 24 26 26 26 26 28 30 31 32 27 19 14 12 11 5 11 22 12 4 5 11 6 9 18 2 9 4 8 2 6 5 7 8 8 9 8 14 15 9 10 12 3 2 3
19 20 23 25 26 27 27 28 29 31 34 33 24 15 11 12 11 11 28 16 3 5 6 5 7 16 17 5 5 7 6 3 4 5 3 9 4 6 11 8 12 6 8 5 3 4 3
19 21 23 26 26 28 28 30 31 35 37 30 19 9 16 12 12 24 12 2 4 4 7 7 9 15 16 11 7 8 6 6 3 2 6 2 6 3 5 5 5 9 7 3 2 1 8
20 22 24 26 27 29 30 32 34 38 36 29 10 13 23 22 25 15 3 4 5 5 9 15 8 13 6 14 7 9 8 6 6 6 2 6 3 8 4 6 6 6 11 5 8 10 7
20 22 24 26 28 30 31 33 35 40 37 28 6 3 28 33 22 11 5 5 1 7 11 9 9 5 5 12 8 9 7 10 6 9 3 3 8 3 8 5 9 6 7 8 4 2 5
20 23 25 27 29 31 32 36 36 39 36 24 6 3 23 33 17 9 5 4 5 14 13 9 8 6 7 8 10 10 8 5 11 13 11 4 4 7 6 5 5 8 7 4 1 5 5
20 22 25 27 28 31 34 36 37 39 36 18 5 4 28 22 13 6 3 4 3 12 14 11 10 7 8 6 9 7 10 3 12 19 13 4 2 3 7 6 9 4 4 4 5 3 6
19 21 24 26 28 30 33 36 36 39 34 15 5 4 30 11 6 2 3 6 11 11 8 8 8 12 9 8 5 5 8 6 13 17 10 2 3 4 6 1 6 7 9 6 5 5 2
18 21 23 25 26 29 32 37 35 36 26 7 3 1 15 19 4 4 5 7 7 12 10 9 7 7 13 5 6 7 7 7 10 10 11 8 3 3 1 3 0 5 5 6 4 5 5
17 20 22 24 25 27 31 36 37 33 24 8 3 4 4 4 1 3 4 8 12 8 6 10 7 9 15 10 5 6 12 7 18 10 15 10 4 3 2 0 2 6 5 6 7 5 5
15 18 21 22 24 25 28 32 37 31 30 6 4 1 3 4 5 5 6 8 11 13 4 5 5 10 11 6 10 5 5 14 11 3 7 4 4 9 11 11 7 2 5 9 4 6 8
15 16 18 21 22 23 25 29 36 34 19 14 3 3 4 3 3 5 7 8 13 14 5 9 10 16 10 6 4 11 15 6 7 5 9 7 4 7 4 5 7 12 15 8 8 5 5
14 15 16 19 21 21 22 25 29 32 24 10 7 4 1 4 5 4 4 10 13 14 7 7 13 15 14 10 8 16 15 15 15 9 8 5 5 7 3 4 4 9 14 11 12 14 4
11 13 14 16 19 19 20 21 23 26 24 13 8 1 3 3 3 4 7 12 12 13 11 13 9 9 8 20 17 12 12 15 15 14 11 5 7 3 3 3 3 6 11 18 20 14 15
9 11 12 13 16 17 18 18 19 20 17 18 14 7 2 3 4 5 12 6 10 7 11 11 12 14 13 10 3 5 2 1 3 5 11 12 1 3 2 4 5 5 8 6 6 8 15
7 9 10 12 13 16 16 16 16 16 17 14 15 14 2 1 3 3 6 4 5 8 9 5 13 17 5 3 3 3 4 5 2 5 5 6 3 4 4 1 3 3 10 10 8 5 14
6 7 8 11 12 14 15 15 15 15 17 17 9 15 4 1 3 2 2 5 4 5 4 6 14 7 5 6 4 4 5 9 5 4 4 2 1 2 4 3 4 11 18 8 3 3 12
5 6 6 8 10 12 14 15 14 14 16 18 10 14 6 2 5 3 2 3 3 1 4 5 7 5 4 7 4 4 3 5 3 4 3 4 4 3 4 6 5 19 5 6 3 5 8
3 5 5 7 9 10 13 13 14 14 15 16 6 16 12 4 5 14 17 14 12 15 2 3 3 3 2 3 3 3 3 4 8 4 10 6 4 2 5 4 3 6 5 8 8 7 6
Wind_Direction
29 23 18 12 10 7 3 359 356 351 347 345 343 340 337 334 332 330 327 324 322 321 315 309 307 310 321 265 252 274 301 336 354 180 192 213 193 163 187 203 199 224 212 197 217 170 185
26 20 14 13 6 3 360 358 353 350 345 342 339 337 335 332 330 328 326 326 325 321 311 299 292 294 275 274 260 291 302 321 19 186 178 177 219 202 207 219 196 207 230 236 181 215 181
22 17 12 5 4 0 358 353 349 345 343 340 337 334 333 331 333 332 331 331 324 318 310 297 274 252 261 248 268 288 285 284 282 258 236 205 214 213 170 191 220 191 192 234 236 165 183
22 14 10 4 360 358 357 352 346 344 341 338 334 332 330 331 335 336 339 330 322 319 328 323 220 214 256 270 289 286 290 287 281 252 238 255 211 243 199 288 83 202 160 226 195 170 189
18 12 7 1 357 355 353 349 347 345 341 337 334 333 332 336 343 343 340 332 328 357 20 69 134 188 265 286 273 313 312 266 294 244 219 233 174 201 206 113 94 213 209 218 165 186 147
17 13 10 3 358 356 352 348 346 344 340 337 336 335 333 339 346 348 340 334 344 2 6 292 159 254 257 261 262 275 306 285 275 139 132 171 156 163 151 161 205 190 199 191 201 183 131
18 15 10 3 0 355 349 347 345 343 340 339 337 336 337 344 344 341 348 3 12 346 21 247 245 258 277 280 293 273 222 97 233 222 162 188 161 204 207 212 249 183 198 195 187 197 127
16 12 9 2 360 353 349 350 347 343 341 340 339 338 342 347 350 352 33 65 58 293 303 249 257 254 265 265 299 297 185 167 173 199 128 129 218 196 155 177 223 257 218 220 219 167 121
13 9 5 360 358 353 350 349 347 343 341 340 340 341 342 345 349 4 36 41 345 346 285 293 231 246 259 158 257 275 200 174 173 166 191 191 225 173 181 178 198 222 221 167 147 117 53
12 7 3 360 354 356 351 350 347 343 342 341 343 340 340 347 355 345 325 339 327 328 308 282 311 284 4 228 269 218 225 202 181 190 166 232 247 172 209 198 188 212 204 189 250 76 173
12 8 4 359 354 356 353 351 348 343 345 345 346 341 339 349 314 319 328 326 327 141 360 326 320 317 320 277 287 347 251 238 211 173 152 221 184 188 193 216 197 209 163 198 204 184 122
13 8 5 359 357 356 355 350 349 345 347 346 346 345 357 344 327 325 319 327 112 45 265 340 324 335 335 336 319 292 356 243 220 187 198 218 197 184 180 190 185 169 144 145 112 140 255
11 10 6 360 359 357 355 351 350 351 349 349 349 13 6 8 329 329 338 69 29 121 330 348 323 329 317 343 324 346 338 346 53 163 236 182 220 239 130 140 171 183 136 131 154 124 226
12 10 8 1 2 359 356 354 353 355 356 351 360 54 15 359 350 349 19 53 65 342 317 330 316 314 324 5 340 327 18 8 9 357 203 179 230 165 184 166 184 191 201 156 167 198 193
13 10 8 4 3 1 357 358 359 357 357 352 1 10 8 349 351 347 69 52 158 346 325 308 327 333 341 347 337 350 12 353 25 8 12 338 224 223 167 157 144 223 193 213 108 55 110
14 12 8 8 5 1 360 4 2 359 360 356 9 77 3 348 5 38 66 55 19 355 334 326 6 23 355 328 343 329 22 38 350 357 339 287 294 214 213 127 209 165 170 170 1 140 179
16 13 10 10 7 3 3 8 5 1 1 3 27 52 350 2 46 46 83 335 334 350 1 4 354 354 343 338 315 334 11 344 7 343 331 327 275 278 130 178 170 140 169 159 136 136 177
19 17 14 10 8 7 8 12 10 5 0 17 48 50 355 22 50 22 29 346 322 339 1 28 351 346 350 309 307 15 358 332 333 338 330 319 305 278 208 178 159 162 180 148 174 233 299
23 19 16 12 12 10 9 16 14 13 8 4 67 312 17 34 58 354 320 2 348 351 348 0 337 351 337 306 317 331 343 343 331 339 352 338 282 285 194 12 64 153 170 158 118 111 199
26 21 17 14 15 14 12 17 20 20 19 40 66 23 338 33 69 13 347 355 353 342 333 354 312 357 345 325 333 298 337 326 323 320 344 340 257 321 240 180 339 156 163 168 141 144 157
29 23 19 16 17 16 17 18 24 25 29 50 28 335 185 341 348 347 358 3 354 357 325 346 318 343 336 303 315 327 311 329 320 15 352 47 291 345 289 272 260 218 176 163 147 160 163
31 26 21 18 19 16 19 22 24 24 31 56 76 27 0 322 321 352 356 351 340 343 303 320 325 317 305 276 263 300 304 309 283 328 357 350 296 319 274 294 94 61 19 69 55 13 58
29 25 22 18 20 16 20 25 28 25 36 48 19 31 13 320 344 354 355 345 325 333 286 284 313 307 305 289 290 283 273 262 260 295 314 305 344 339 241 360 334 33 7 67 80 42 349
25 25 23 18 20 18 21 24 31 30 43 56 19 14 67 320 359 350 317 326 335 326 305 303 312 315 290 302 295 266 253 249 248 244 219 273 315 295 298 360 65 97 41 77 76 48 38
14 19 19 20 18 19 22 23 29 32 32 40 27 17 84 321 310 318 336 319 316 308 313 295 310 312 299 297 297 317 332 236 247 210 201 213 323 280 299 113 103 50 21 353 14 50 23
357 9 9 17 15 17 19 19 25 25 22 13 25 21 66 4 292 309 315 321 327 333 331 291 319 323 326 314 317 325 29 344 10 92 142 179 251 338 326 52 77 3 331 311 292 78 4
345 355 0 10 10 12 14 16 20 19 17 14 22 11 338 356 274 359 329 316 319 291 288 297 337 325 355 347 342 350 15 344 22 35 352 77 27 268 299 51 63 336 327 292 75 4 330
345 347 353 3 5 7 10 12 16 16 18 16 357 357 354 282 280 221 258 283 311 284 308 298 336 360 319 12 352 356 339 358 340 16 7 55 320 22 1 33 21 333 27 54 328 291 324
341 341 344 354 360 1 5 6 11 15 15 3 356 359 340 240 263 299 291 282 255 254 222 298 233 273 287 337 350 332 328 336 341 43 17 38 347 30 34 45 301 321 359 349 349 346 342